Weather Data

Pearl Creek Farm: 8878 N Farm Road 75, Walnut Grove MO 65770

<== Previous Day (Thursday 18 Sep 2014) | Next Day (Saturday 20 Sep 2014) ==>

Summary Precipitation Data For Friday 19 September 2014

ElementValueUnits
Precipitation0.02"
Notes(none)
SourcePearl Creek Farm

Summary Temperature Data For Friday 19 September 2014

ElementValueUnits
High Temperature78 oF
Low Temperature61 oF
Average Temperature68 oF
High Humidity95 %
Low Humidity76 %
Average Humidity88 %
SourcePearl Creek Farm

Detail Temperature Data For Friday 19 September 2014

Date / TimeTemp (F)RH (%)Dew Pt (F)Report Date / TimeSource
2014-09-19 00:00:00 64 91 61.3 2014-11-02 13:41:02 Pearl Creek Farm
2014-09-19 00:30:00 63 90 59.9 2014-11-02 13:41:02 Pearl Creek Farm
2014-09-19 01:00:00 63 91 60.3 2014-11-02 13:41:02 Pearl Creek Farm
2014-09-19 01:30:00 62 92 59.5 2014-11-02 13:41:02 Pearl Creek Farm
2014-09-19 02:00:00 62 92 59.5 2014-11-02 13:41:02 Pearl Creek Farm
2014-09-19 02:30:00 61 92 58.7 2014-11-02 13:41:02 Pearl Creek Farm
2014-09-19 03:00:00 61 92 58.7 2014-11-02 13:41:02 Pearl Creek Farm
2014-09-19 03:30:00 61 93 58.8 2014-11-02 13:41:02 Pearl Creek Farm
2014-09-19 04:00:00 61 94 59.1 2014-11-02 13:41:02 Pearl Creek Farm
2014-09-19 04:30:00 61 94 59.1 2014-11-02 13:41:02 Pearl Creek Farm
2014-09-19 05:00:00 61 93 59.0 2014-11-02 13:41:02 Pearl Creek Farm
2014-09-19 05:30:00 61 94 59.1 2014-11-02 13:41:02 Pearl Creek Farm
2014-09-19 06:00:00 62 94 60.1 2014-11-02 13:41:02 Pearl Creek Farm
2014-09-19 06:30:00 62 94 60.1 2014-11-02 13:41:02 Pearl Creek Farm
2014-09-19 07:00:00 61 94 59.1 2014-11-02 13:41:02 Pearl Creek Farm
2014-09-19 07:30:00 62 94 60.3 2014-11-02 13:41:02 Pearl Creek Farm
2014-09-19 08:00:00 62 95 60.4 2014-11-02 13:41:02 Pearl Creek Farm
2014-09-19 08:30:00 63 94 61.2 2014-11-02 13:41:02 Pearl Creek Farm
2014-09-19 09:00:00 64 94 62.2 2014-11-02 13:41:02 Pearl Creek Farm
2014-09-19 09:30:00 65 94 63.1 2014-11-02 13:41:02 Pearl Creek Farm
2014-09-19 10:00:00 67 91 64.1 2014-11-02 13:41:02 Pearl Creek Farm
2014-09-19 10:30:00 68 90 64.8 2014-11-02 13:41:02 Pearl Creek Farm
2014-09-19 11:00:00 70 87 66.0 2014-11-02 13:41:02 Pearl Creek Farm
2014-09-19 11:30:00 71 87 66.8 2014-11-02 13:41:02 Pearl Creek Farm
2014-09-19 12:00:00 72 85 67.1 2014-11-02 13:41:02 Pearl Creek Farm
2014-09-19 12:30:00 74 85 69.0 2014-11-02 13:41:02 Pearl Creek Farm
2014-09-19 13:00:00 75 82 69.1 2014-11-02 13:41:02 Pearl Creek Farm
2014-09-19 13:30:00 77 81 70.7 2014-11-02 13:41:02 Pearl Creek Farm
2014-09-19 14:00:00 77 79 69.8 2014-11-02 13:41:02 Pearl Creek Farm
2014-09-19 14:30:00 77 79 69.8 2014-11-02 13:41:02 Pearl Creek Farm
2014-09-19 15:00:00 78 77 70.0 2014-11-02 13:41:02 Pearl Creek Farm
2014-09-19 15:30:00 78 76 69.6 2014-11-02 13:41:02 Pearl Creek Farm
2014-09-19 16:00:00 78 78 70.4 2014-11-02 13:41:02 Pearl Creek Farm
2014-09-19 16:30:00 78 77 70.0 2014-11-02 13:41:02 Pearl Creek Farm
2014-09-19 17:00:00 78 77 70.0 2014-11-02 13:41:02 Pearl Creek Farm
2014-09-19 17:30:00 77 79 70.0 2014-11-02 13:41:02 Pearl Creek Farm
2014-09-19 18:00:00 77 80 70.4 2014-11-02 13:41:02 Pearl Creek Farm
2014-09-19 18:30:00 76 82 69.9 2014-11-02 13:41:02 Pearl Creek Farm
2014-09-19 19:00:00 74 83 68.5 2014-11-02 13:41:02 Pearl Creek Farm
2014-09-19 19:30:00 73 86 68.4 2014-11-02 13:41:02 Pearl Creek Farm
2014-09-19 20:00:00 71 86 66.6 2014-11-02 13:41:02 Pearl Creek Farm
2014-09-19 20:30:00 70 87 66.0 2014-11-02 13:41:02 Pearl Creek Farm
2014-09-19 21:00:00 69 88 65.3 2014-11-02 13:41:02 Pearl Creek Farm
2014-09-19 21:30:00 68 89 64.5 2014-11-02 13:41:02 Pearl Creek Farm
2014-09-19 22:00:00 67 90 63.8 2014-11-02 13:41:02 Pearl Creek Farm
2014-09-19 22:30:00 67 90 64.0 2014-11-02 13:41:02 Pearl Creek Farm
2014-09-19 23:00:00 66 91 63.1 2014-11-02 13:41:02 Pearl Creek Farm
2014-09-19 23:30:00 66 92 63.5 2014-11-02 13:41:02 Pearl Creek Farm

A total of 48 rows are displayed.